User: anonymous
Location: Hartman Creek State Park
(44.3257°N, 89.2134°W)
Time: 19:39:46
(UTC-05:00)
Language:

Terra - Orbit

View from above orbital plane
View from above orbital plane
View from above satellite
View from above satellite

Ground track
Ground track

The orbit data is extracted from the following two-line orbital elements,

1 25994U 99068A   14109.80148596  .00000751  00000-0  17677-3 0  1588
2 25994 098.2140 185.3335 0001443 107.5003 252.6338 14.57130512762565
Epoch (UTC): 19 April 2014 19:14:08
Eccentricity: 0.0001443
inclination: 98.2140°
perigee height: 701 km
apogee height: 703 km
right ascension of ascending node: 185.3335°
argument of perigee: 107.5003°
revolutions per day: 14.57130512
mean anomaly at epoch: 252.6338°
orbit number at epoch: 76256

The dashed part of the orbit path shows where the satellite is in the earth's shadow,  

DLR